• Join FlightAware (Why Join?)
  • Login
  • US Flag 
05:47PM EDT


 

Airport Tracker/Info


-or-


 

Live Flight TrackerFlight Track Log ✈ N35407 ✈ 11-Apr-2013 ✈ KIAH - KSAT

Flight Track Log - Related Links

Times and Time Zones

All times are in EDT time to prevent confusion due to time zone crossing. See the N35407 flight status page for this flight to view local times or setup timezone preferences in your user account.

Time Position Orientation Groundspeed Altitude Reporting Facility
EDT Latitude Longitude Course Direction KTS MPH feet Rate Location/Type
08:14PM 29.9506 -95.3378 231° Southwest 185 213 900  Level Houston Center
08:15PM 29.9208 -95.3797 231° Southwest 229 264 3,100 1,680 Climbing Houston Center
08:16PM 29.9272 -95.4219 280° West 242 278 3,900 1,080 Climbing Houston Center
08:16PM 29.9400 -95.4500 298° West 248 285 4,200 2,460 Climbing Houston Center
08:17PM 29.9736 -95.5031 306° West 254 292 6,500 3,180 Climbing Houston Center
08:17PM 29.9767 -95.5322 277° West 258 297 7,800 3,480 Climbing Houston Center
08:18PM 29.9764 -95.5847 270° West 253 291 10,100 2,940 Climbing Houston Center
08:18PM 29.9653 -95.6156 247° West 268 308 10,800 1,620 Climbing Houston Center
08:19PM 29.9469 -95.6739 250° West 306 352 11,800 2,040 Climbing Houston Center
08:20PM 29.9136 -95.7747 249° West 333 383 14,400 2,700 Climbing Houston Center
08:21PM 29.8792 -95.8775 249° West 346 398 17,400 3,240 Climbing Houston Center
08:22PM 29.8372 -96.0028 249° West 348 400 21,200 2,160 Climbing Houston Center
08:23PM 29.8061 -96.0997 250° West 337 388 21,900 300 Climbing Houston Center
08:24PM 29.7803 -96.2028 254° West 338 389 21,900  Level Houston Center
08:25PM 29.7892 -96.3100 275° West 340 391 22,000  Climbing Houston Center
08:26PM 29.7983 -96.4308 275° West 372 428 22,000 -60 Level Houston Center
08:27PM 29.8086 -96.5744 275° West 377 434 21,900 -540 Descending Houston Center
08:28PM 29.8178 -96.6958 275° West 384 442 20,900 -1,020 Descending Houston Center
08:29PM 29.8261 -96.8153 275° West 379 436 19,900 -960 Descending Houston Center
08:30PM 29.8342 -96.9364 274° West 381 438 19,000 -480 Descending Houston Center
08:31PM 29.8431 -97.0539 275° West 372 428 19,000 -60 Level Houston Center
08:32PM 29.8525 -97.1950 274° West 372 428 18,900  Descending Houston Center
08:33PM 29.8611 -97.3125 275° West 370 426 19,000  Climbing Houston Center
08:34PM 29.8694 -97.4314 275° West 373 429 19,000  Level Houston Center
08:35PM 29.8717 -97.4553 276° West 373 429 19,000 -120 Level Houston Center
08:35PM 29.8769 -97.5628 273° West 375 432 18,900 -1,380 Descending Houston Center
08:36PM 29.8861 -97.6858 275° West 361 415 16,600 -2,280 Descending Houston Center
08:37PM 29.8925 -97.7967 274° West 349 402 14,300 -2,580 Descending Houston Center
08:39PM 29.8731 -97.9228 260° West 343 395 10,900 -2,040 Descending Houston Center
08:39PM 29.8372 -98.0025 243° Southwest 330 380 10,100 -900 Descending Houston Center
08:40PM 29.8033 -98.0839 244° Southwest 284 327 9,300 -960 Descending Houston Center
08:42PM 29.7694 -98.1661 245° Southwest 263 303 8,200 -1,020 Descending Houston Center
08:43PM 29.7369 -98.2417 244° Southwest 264 304 7,200 -1,020 Descending Houston Center
08:44PM 29.7025 -98.3214 244° Southwest 261 300 6,200 -1,080 Descending Houston Center
08:45PM 29.6819 -98.3983 253° West 256 295 5,100 -1,620 Descending Houston Center
08:46PM 29.6728 -98.4850 263° West 259 298 2,900 -2,160 Descending Houston Center